2020-102A (47296 NORAD) Tracking and Keplerian Element Data

This shows tracking and keplerian element data for the satellite.

Feedback or suggestion? Click here.




ElementValue
Catalog47296
Name2020-102A
Epoch Orbit454
Epoch Day21.09903096
Epoch Year2021
RAAN121.0004
Inclination97.4343
Eccentricity0.0009458
Argument of Perigee85.3171
Mean Anonmoly13.5978
Mean Motion15.18753471
Decay Rate7.34E-06
L11 47296U 20102A 21021.09903096 .00000734 00000-0 38565-4 0 9990
L22 47296 97.4343 121.0004 0009458 85.3171 13.5978 15.18753471 4547

Live tracking and technical data element details for 2020-102A (NORAD 47296). 2020-102A can be tracked NOW for your location showing map with azimuth and elevation plus other details from your city location.

Track the satellite on the map from your city or location and see movement details for azimuth, elevation, latitude, longitude, range, height, and movement on the map or in text.







IsCatalogInMostPopularTable: catalog: 47296, numindb: 12
Update: records affected: 1



GetName: 47296 2020-102A

Hit Count: updated at: Sat, 23 Jan 2021 18:21:45 GMT